EHI
0 0 0 0 0 0 0 0 0 0 0 0 0 0 0 0 0 0 0 0 0 0 0 0 0 0 0 0 0 0 0 0 0 0 0 0 0 0
0 0 0 0 0 0 0 0 0 0 0 0 0 0 0 0 0 0 0 0 0 0 0 0 0 0 0 0 0 0 0 0 0 0 0 0 0 0
0 0 0 0 0 0 0 0 0 0 0 0 0 0 0 0 0 0 0 0 0 0 0 0 0 0 0 0 0 0 0 0 0 0 0 0 0 0
0 0 0 0 0 0 0 0 0 0 0 0 0 0 0 0 0 0 0 0 0 0 0 0 0 0 0 0 0 0 0 0 0 0 0 0 0 0
0 0 0 0 0 0 0 0 0 0 0 0 0 0 0 0 0 0 0 0 0 0 0 0 0 0 0 0 0 0 0 0 0 0 0 0 0 0
0 0 0 0 0 0 0 0 0 0 0 0 0 0 0 0 0 0 0 0 0 0 0 0 0 0 0 0 0 0 0 0 0 0 0 0 0 0
0 0 0 0 0 0 0 0 0 0 0 0 0 0 0 0 0 0 0 0 0 0 0 0 0 0 0 0 0 0 0 0 0 0 0 0 0 0
0 0 0 0 0 0 0 0 0 0 0 0 0 0 0 0 0 0 0 0 0 0 0 0 0 0 0 0 0 0 0 0 0 0 0 0 0 0
0 0 0 0 0 0 0 0 0 0 0 0 0 0 0 0 0 0 0 0 0 0 0 0 0 0 0 0 0 0 0 0 0 0 0 0 0 0
0 0 0 0 0 0 0 0 0 0 0 0 0 0 0 0 0 0 0 0 0 0 0 0 0 0 0 0 0 0 0 0 0 0 0 0 0 0
0 0 0 0 0 0 0 0 0 0 0 0 0 0 0 0 0 0 0 0 0 0 0 0 0 0 0 0 0 0 0 0 0 0 0 0 0 0
0 0 0 0 0 0 0 0 0 0 0 0 0 0 0 0 0 0 0 0 0 0 0 0 0 0 0 0 0 0 0 0 0 0 0 0 0 0
0 0 0 0 0 0 0 0 0 0 0 0 0 0 0 0 0 0 0 0 0 0 0 0 0 0 0 0 0 0 0 0 0 0 0 0 0 0
0 0 0 0 0 0 0 0 0 0 0 0 0 0 0 0 0 0 0 0 0 0 0 0 0 0 0 0 0 0 0 0 0 0 0 0 0 0
0 0 0 0 0 0 0 0 0 0 0 0 0 0 0 0 0 0 0 0 0 0 0 0 0 0 0 0 0 0 0 0 0 0 0 0 0 0
0 0 0 0 0 0 0 0 0 0 0 0 0 0 0 0 0 0 0 0 0 0 0 0 0 0 0 0 0 0 0 0 0 0 0 0 0 0
0 0 0 0 0 0 0 0 0 0 0 0 0 0 0 0 0 0 0 0 0 0 0 0 0 0 0 0 0 0 0 0 0 0 0 0 0 0
0 0 0 0 0 0 0 0 0 0 0 0 0 0 0 0 0 0 0 0 0 0 0 0 0 0 0 0 0 0 0 0 0 0 0 0 0 0
0 0 0 0 0 0 0 0 0 0 0 0 0 0 0 0 0 0 0 0 0 0 0 0 0 0 0 0 0 0 0 0 0 0 0 0 0 0
0 0 0 0 0 0 0 0 0 0 0 0 0 0 0 0 0 0 0 0 0 0 0 0 0 0 0 0 0 0 0 0 0 0 0 0 0 0
0 0 0 0 0 0 0 0 0 0 0 0 0 0 0 0 0 0 0 0 0 0 0 0 0 0 0 0 0 0 0 0 0 0 0 0 0 0
0 0 0 0 0 0 0 0 0 0 0 0 0 0 0 0 0 0 0 0 0 0 0 0 0 0 0 0 0 0 0 0 0 0 0 0 0 0
0 0 0 0 0 0 0 0 0 0 0 0 0 0 0 0 0 0 0 0 0 0 0 0 0 0 0 0 0 0 0 0 0 0 0 0 0 0
Wind_Speed
3 2 2 2 1 1 1 2 2 3 3 2 1 2 2 1 3 2 2 10 13 13 12 8 5 4 5 6 7 7 8 9 9 9 10 11 12 13
4 5 5 3 3 3 2 1 1 2 3 0 0 2 2 2 2 0 1 6 7 8 7 5 5 6 7 8 8 9 9 9 10 11 12 12 12 13
6 6 6 5 4 4 3 3 2 1 2 1 1 1 2 1 2 2 2 2 1 2 2 3 4 5 5 6 7 8 9 9 10 11 11 11 12 13
7 7 6 5 6 4 4 4 3 2 1 1 1 2 2 2 2 3 3 3 2 2 3 4 5 5 6 7 7 8 8 8 9 10 11 12 12 13
7 7 6 6 6 4 4 4 3 3 2 1 2 2 2 2 2 3 3 3 2 2 3 4 4 5 6 6 7 8 9 9 10 11 12 12 13 14
7 6 6 5 5 4 4 4 3 3 3 2 2 2 2 2 2 2 2 2 2 2 3 3 4 5 6 8 9 10 10 11 12 13 13 13 13 14
7 7 7 9 8 5 4 3 3 3 3 3 2 2 2 2 2 2 2 1 1 2 2 1 2 2 4 7 10 11 13 13 14 14 14 14 14 14
6 6 6 8 10 12 11 10 7 4 3 2 2 2 2 2 2 2 1 1 1 1 2 3 2 4 4 3 8 12 12 13 14 13 13 13 14 14
5 5 5 6 7 5 8 11 11 12 8 3 2 2 1 1 1 1 1 0 1 2 1 3 2 3 4 5 10 11 12 12 12 12 12 13 13 13
4 4 4 4 4 5 5 5 5 6 6 4 2 1 0 1 1 1 1 1 2 2 2 3 3 3 4 4 10 11 10 10 11 11 12 12 12 13
3 3 3 3 7 8 5 4 4 4 6 7 5 4 4 3 1 2 1 1 2 2 0 2 2 3 3 3 4 6 6 6 8 10 11 12 13 14
3 4 6 5 7 6 3 2 2 2 2 3 4 5 4 4 4 2 3 2 1 3 2 1 2 3 5 3 2 3 4 8 11 12 13 14 15 8
1 2 3 7 7 7 4 0 3 1 0 1 2 2 2 2 2 2 1 3 3 4 3 2 1 1 2 5 4 3 3 3 4 6 11 16 17 12
1 1 3 7 7 7 4 4 5 3 1 1 1 1 2 2 2 2 3 3 5 6 4 3 3 3 2 4 6 4 3 4 5 6 5 11 13 15
2 4 6 7 6 4 5 5 3 1 1 1 2 2 2 3 3 3 3 3 5 6 6 6 6 4 4 6 6 5 5 4 5 5 4 4 5 5
2 3 5 6 4 3 3 3 2 1 1 2 2 2 2 2 2 2 2 3 4 4 3 4 5 6 5 7 9 10 7 6 4 4 5 6 6 7
2 1 0 1 2 2 2 2 2 2 2 2 2 3 3 3 3 2 2 2 3 4 5 3 4 6 8 8 9 11 10 9 9 7 6 9 8 7
2 1 1 2 2 2 2 2 2 2 2 2 2 3 3 4 4 3 3 4 6 6 6 4 3 3 4 8 13 12 9 9 8 6 6 8 11 8
1 2 2 3 3 3 3 3 3 3 2 3 3 4 4 4 4 5 5 5 6 7 7 5 4 4 6 8 7 11 9 7 6 7 7 9 11 10
2 3 3 4 3 3 3 3 4 3 3 4 4 4 4 4 5 5 5 6 7 7 7 6 6 7 8 8 7 6 12 11 9 11 10 9 11 15
3 4 4 4 4 4 4 4 4 4 4 4 4 5 5 5 6 6 6 10 10 8 9 8 7 10 7 6 9 9 7 14 16 11 8 9 12 12
4 4 4 4 4 4 4 4 4 4 5 5 5 5 5 5 7 8 7 8 8 8 10 9 7 5 6 8 13 14 13 10 13 22 24 21 11 8
5 4 4 4 4 4 4 5 6 5 5 5 6 6 5 6 7 7 8 8 9 9 10 10 8 7 9 10 12 13 16 15 11 11 12 19 26 31
Wind_Direction
30 35 46 32 26 345 239 216 242 277 279 259 283 340 319 293 253 229 216 225 220 221 220 214 198 197 233 247 255 262 267 269 270 271 274 274 276 278
43 53 49 33 35 27 15 352 257 252 271 327 325 352 325 311 260 128 179 211 218 214 209 210 216 236 250 257 259 262 266 269 272 274 276 278 279 280
48 56 51 40 41 29 28 29 19 344 279 357 45 357 348 352 26 62 66 77 41 245 247 253 259 261 261 262 265 268 269 271 275 278 280 282 283 283
50 53 47 47 46 35 37 38 28 13 349 332 19 11 13 19 47 68 66 71 59 3 315 293 281 273 268 268 271 273 275 277 278 278 278 280 281 281
55 55 48 51 49 38 40 36 24 20 22 50 37 27 24 31 51 57 64 50 56 23 331 317 313 301 289 283 281 280 280 280 278 276 275 276 278 278
53 51 49 53 57 48 44 36 32 34 35 52 48 36 31 26 49 53 58 43 34 19 349 339 339 337 322 305 292 287 284 279 275 273 272 272 272 273
51 42 43 48 58 66 64 46 42 43 42 46 40 32 27 25 32 28 52 29 26 21 353 335 331 311 303 298 292 282 274 270 268 268 268 269 269 269
50 36 35 40 42 46 52 51 51 53 45 46 36 38 24 21 20 31 47 31 341 3 353 293 276 276 273 261 275 275 269 266 264 264 264 265 267 269
52 41 36 33 45 40 42 42 37 41 50 72 58 34 13 360 61 34 35 35 268 294 340 288 295 281 274 276 287 283 275 268 264 263 264 266 268 270
48 44 38 15 37 55 47 38 29 28 43 56 78 22 289 234 186 172 193 277 285 270 200 271 298 282 282 285 296 291 277 267 264 264 268 269 270 273
25 28 38 14 19 43 57 36 20 4 17 29 27 10 355 331 229 130 111 29 312 293 239 252 296 299 290 290 301 313 316 308 293 282 279 279 279 280
13 8 8 6 6 25 82 45 355 324 342 355 0 358 1 358 22 133 167 167 226 285 279 245 294 333 316 294 272 278 294 299 300 295 290 287 284 280
4 347 332 344 351 355 14 277 292 327 59 342 329 334 352 6 15 19 155 170 188 239 251 181 238 247 253 294 294 258 254 267 280 279 284 285 283 277
294 291 300 325 338 347 350 326 352 44 39 336 329 330 330 318 311 309 288 246 225 235 247 203 220 211 240 276 281 282 259 248 256 267 261 279 282 278
254 299 322 337 352 352 331 345 26 34 340 318 306 289 270 267 284 299 295 277 265 256 248 220 219 230 233 256 271 280 298 278 248 255 261 256 253 257
301 310 331 342 352 342 348 5 4 307 290 274 279 281 285 283 284 283 290 307 303 290 260 232 219 218 244 252 264 275 271 274 280 256 259 265 259 248
251 190 341 335 333 329 323 317 316 324 326 300 290 294 294 293 289 284 276 284 274 284 290 268 241 231 235 248 263 263 267 266 266 272 273 277 269 253
288 179 255 268 275 284 293 299 296 289 281 276 277 277 283 287 288 282 264 264 271 275 276 277 279 287 271 254 236 253 258 261 265 259 252 270 277 264
240 227 245 253 257 261 260 258 262 265 265 267 265 266 267 271 273 275 271 267 268 271 271 264 253 250 273 282 263 226 237 257 264 265 255 254 268 274
219 234 242 244 245 248 251 252 259 267 262 260 259 258 256 259 265 266 264 261 268 273 274 257 239 233 243 265 273 257 239 250 261 267 268 265 266 273
238 238 238 239 242 244 246 248 251 257 259 258 258 256 253 251 259 262 264 271 273 272 273 270 250 259 259 260 267 266 247 244 248 253 262 270 277 277
239 240 241 239 239 241 244 247 251 254 257 254 255 255 252 250 259 264 264 265 265 264 268 272 268 258 245 253 265 275 281 271 261 264 262 256 259 264
236 237 239 240 239 239 240 244 249 254 253 253 256 256 253 256 257 259 262 263 266 269 273 279 275 260 257 258 266 273 278 281 280 274 264 256 256 258